CFG2625 EDDN-EPMO

Flight info

Callsign CFG2625
Flight time N/A
Altitude 31000
Route ERETO1C ERETO DCT UNAVI DCT PEROX Z715 RIKLU P31 BUKIG/N0409F270 P31 GOVEN/N0443F350 L979 KELOD L980 ADVAB P150 DOSIX
Aircraft A321/M-SDE3FGHIRWY/LB1

Departure

Time 2026-04-28 16:03
Airport Nuremberg Airport (EDDN)

Arrival

Time N/A
Airport Warsaw Modlin Airport (EPMO)
Time Latitude Longitude Altitude Speed Heading
2026-04-28 15:28 49.49522 11.07791 1024 ft 0 kts 188°
2026-04-28 15:52 49.49522 11.07792 1024 ft 0 kts 188°
2026-04-28 15:53 49.49534 11.07794 1024 ft 4 kts 188°
2026-04-28 15:53 49.49556 11.07799 1026 ft 3 kts 188°
2026-04-28 15:54 49.49577 11.07804 1027 ft 4 kts 225°
2026-04-28 15:54 49.49580 11.07830 1024 ft 3 kts 278°
2026-04-28 15:54 49.49576 11.07868 1027 ft 2 kts 278°
2026-04-28 15:54 49.49576 11.07872 1027 ft 1 kts 278°
2026-04-28 15:56 49.49576 11.07871 1027 ft 1 kts 278°
2026-04-28 15:57 49.49579 11.07836 1025 ft 5 kts 278°
2026-04-28 15:57 49.49597 11.07776 1048 ft 7 kts 331°
2026-04-28 15:57 49.49642 11.07771 1026 ft 7 kts
2026-04-28 15:57 49.49682 11.07733 1023 ft 8 kts 296°
2026-04-28 15:58 49.49694 11.07619 1023 ft 13 kts 278°
2026-04-28 15:58 49.49710 11.07470 1024 ft 16 kts 279°
2026-04-28 15:58 49.49726 11.07309 1023 ft 15 kts 278°
2026-04-28 15:58 49.49741 11.07155 1022 ft 14 kts 278°
2026-04-28 15:59 49.49755 11.07009 1021 ft 14 kts 278°
2026-04-28 15:59 49.49770 11.06862 1020 ft 14 kts 279°
2026-04-28 15:59 49.49784 11.06721 1020 ft 13 kts 278°
2026-04-28 15:59 49.49797 11.06595 1020 ft 11 kts 279°
2026-04-28 16:00 49.49808 11.06479 1020 ft 13 kts 278°
2026-04-28 16:00 49.49825 11.06304 1018 ft 18 kts 278°
2026-04-28 16:00 49.49843 11.06122 1020 ft 15 kts 278°
2026-04-28 16:00 49.49867 11.06004 1021 ft 10 kts 309°
2026-04-28 16:01 49.49916 11.05959 1023 ft 6 kts 336°
2026-04-28 16:01 49.49969 11.05930 1024 ft 11 kts 351°
2026-04-28 16:01 49.50027 11.05963 1027 ft 9 kts 44°
2026-04-28 16:01 49.50039 11.06086 1026 ft 13 kts 99°
2026-04-28 16:02 49.50037 11.06111 1027 ft 6 kts 99°
2026-04-28 16:02 49.49997 11.06524 1024 ft 74 kts 98°
2026-04-28 16:02 49.49890 11.07623 1025 ft 130 kts 98°
2026-04-28 16:02 49.49737 11.09201 1162 ft 159 kts 99°
2026-04-28 16:03 49.49524 11.10803 1907 ft 150 kts 96°
2026-04-28 16:03 49.49360 11.12393 2357 ft 160 kts 94°
2026-04-28 16:03 49.49172 11.14372 2453 ft 209 kts 94°
2026-04-28 16:03 49.49169 11.16592 3512 ft 212 kts 83°
2026-04-28 16:04 49.49504 11.18910 3907 ft 233 kts 66°
2026-04-28 16:04 49.50424 11.21019 4333 ft 249 kts 45°
2026-04-28 16:04 49.51775 11.22741 5059 ft 254 kts 40°
2026-04-28 16:04 49.53165 11.24442 5810 ft 257 kts 40°
2026-04-28 16:05 49.54577 11.26161 6607 ft 259 kts 40°
2026-04-28 16:05 49.55998 11.27894 7316 ft 263 kts 40°
2026-04-28 16:05 49.57450 11.29668 8001 ft 267 kts 39°
2026-04-28 16:05 49.58981 11.31323 8719 ft 271 kts 28°
2026-04-28 16:06 49.60771 11.32336 9349 ft 278 kts 11°
2026-04-28 16:06 49.62702 11.32842 9997 ft 283 kts
2026-04-28 16:06 49.64656 11.33344 10444 ft 296 kts
2026-04-28 16:06 49.66762 11.33888 10577 ft 318 kts
2026-04-28 16:07 49.69013 11.34474 10798 ft 336 kts
2026-04-28 16:07 49.71341 11.35083 11356 ft 341 kts
2026-04-28 16:07 49.76060 11.36321 12673 ft 347 kts
2026-04-28 16:08 49.78453 11.36950 13338 ft 349 kts
2026-04-28 16:08 49.80852 11.37582 14001 ft 352 kts
2026-04-28 16:08 49.83281 11.38223 14551 ft 356 kts
2026-04-28 16:09 49.88163 11.39508 15825 ft 358 kts
2026-04-28 16:09 49.90620 11.40286 16374 ft 363 kts 14°
2026-04-28 16:09 49.92973 11.41797 16923 ft 369 kts 26°
2026-04-28 16:10 49.96959 11.46978 18006 ft 381 kts 43°
2026-04-28 16:10 49.98814 11.49970 18550 ft 384 kts 43°
2026-04-28 16:10 50.02566 11.55978 19475 ft 390 kts 43°
2026-04-28 16:11 50.06353 11.62057 20366 ft 396 kts 43°
2026-04-28 16:11 50.10211 11.68270 21336 ft 401 kts 44°
2026-04-28 16:12 50.13562 11.75381 22205 ft 411 kts 52°
2026-04-28 16:12 50.15187 11.79070 22627 ft 414 kts 52°
2026-04-28 16:13 50.18456 11.86519 23478 ft 420 kts 52°
2026-04-28 16:13 50.20108 11.90295 23867 ft 423 kts 52°
2026-04-28 16:13 50.23426 11.97884 24537 ft 428 kts 52°
2026-04-28 16:14 50.26811 12.05643 25248 ft 433 kts 52°
2026-04-28 16:14 50.30230 12.13502 25916 ft 438 kts 52°
2026-04-28 16:15 50.33677 12.21447 26538 ft 444 kts 52°
2026-04-28 16:15 50.35393 12.25410 26854 ft 447 kts 52°
2026-04-28 16:15 50.37137 12.29452 27165 ft 449 kts 52°
2026-04-28 16:16 50.40652 12.37629 27795 ft 454 kts 52°
2026-04-28 16:16 50.42422 12.41745 28096 ft 457 kts 52°
2026-04-28 16:17 50.45996 12.50063 28682 ft 462 kts 52°
2026-04-28 16:17 50.47794 12.54257 28979 ft 464 kts 52°
2026-04-28 16:17 50.49603 12.58480 29256 ft 467 kts 52°
2026-04-28 16:17 50.51418 12.62725 29537 ft 469 kts 52°
2026-04-28 16:18 50.53238 12.66998 29789 ft 472 kts 52°
2026-04-28 16:18 50.55069 12.71307 30049 ft 475 kts 52°
2026-04-28 16:18 50.56908 12.75643 30287 ft 477 kts 52°
2026-04-28 16:18 50.58756 12.79998 30532 ft 479 kts 52°
2026-04-28 16:19 50.60602 12.84357 30855 ft 479 kts 52°
2026-04-28 16:19 50.62432 12.88688 31169 ft 479 kts 52°
2026-04-28 16:19 50.64260 12.93024 31234 ft 468 kts 52°
2026-04-28 16:19 50.66037 12.97263 31229 ft 460 kts 52°
2026-04-28 16:20 50.69550 13.05639 31225 ft 456 kts 52°
2026-04-28 16:20 50.73033 13.13949 31233 ft 456 kts 52°
2026-04-28 16:21 50.76527 13.22312 31241 ft 456 kts 52°
2026-04-28 16:21 50.80020 13.30704 31235 ft 456 kts 52°
2026-04-28 16:22 50.83502 13.39108 31261 ft 456 kts 52°
2026-04-28 16:22 50.86951 13.47462 31262 ft 454 kts 52°
2026-04-28 16:23 50.90411 13.55864 31257 ft 454 kts 52°
2026-04-28 16:23 50.93840 13.64209 31255 ft 454 kts 52°
2026-04-28 16:24 50.97286 13.72620 31249 ft 453 kts 52°
2026-04-28 16:24 51.00720 13.81029 31270 ft 453 kts 52°
2026-04-28 16:25 51.04137 13.89427 31269 ft 452 kts 52°
2026-04-28 16:25 51.07523 13.97792 31265 ft 451 kts 53°
2026-04-28 16:26 51.10916 14.06194 31262 ft 451 kts 53°
2026-04-28 16:26 51.14306 14.14607 31268 ft 451 kts 53°
2026-04-28 16:27 51.17689 14.23034 31283 ft 451 kts 53°
2026-04-28 16:28 51.22711 14.35580 31293 ft 448 kts 53°
2026-04-28 16:28 51.25490 14.42558 31307 ft 447 kts 53°
2026-04-28 16:29 51.30483 14.55159 31287 ft 447 kts 53°
2026-04-28 16:30 51.35447 14.67733 31274 ft 446 kts 53°
2026-04-28 16:30 51.38763 14.76155 31296 ft 446 kts 53°
2026-04-28 16:31 51.42043 14.84499 31294 ft 445 kts 53°
2026-04-28 16:31 51.45327 14.92891 31293 ft 444 kts 53°
2026-04-28 16:32 51.48601 15.01305 31287 ft 444 kts 53°
2026-04-28 16:32 51.53475 15.13901 31288 ft 444 kts 53°
2026-04-28 16:33 51.56204 15.20955 31309 ft 443 kts 53°
2026-04-28 16:33 51.59982 15.30769 31307 ft 443 kts 53°
2026-04-28 16:34 51.63220 15.39200 31299 ft 443 kts 53°
2026-04-28 16:34 51.66454 15.47653 31303 ft 443 kts 53°
2026-04-28 16:35 51.69667 15.56065 31299 ft 443 kts 53°
2026-04-28 16:35 51.72892 15.64546 31324 ft 443 kts 53°
2026-04-28 16:36 51.76095 15.73016 31332 ft 442 kts 53°
2026-04-28 16:36 51.79296 15.81511 31315 ft 442 kts 53°
2026-04-28 16:37 51.82474 15.89944 31304 ft 441 kts 53°